Flag for Cambodia Weather past 2 weeks in Battambang, Cambodia

Now
90 °F

Scattered clouds.


Feels Like: 98 °F
Forecast: 76 / 93 °F
Wind: 10 mph from Southwest

Location: Siemreap

Current Time: Mar 3, 2015 at 12:45:03 PM

Latest Report: Mar 3, 2015 at 12:00 PM


Visibility: N/A

Pressure: 29.83 "Hg

Humidity: 59%

Dew point: 73 °F

Location of BattambangLocation

Historic Weather in Battambang — Graph

°F

Battambang temperature yesterday

Maximum temperature yesterday: 93 °F (at 4:00 PM)
Minimum temperature yesterday: 79 °F (at 7:30 AM)
Average temperature yesterday: 87 °F

Past Weeks' High & Low Weather Summary

 TemperatureHumidityPressure
High95 °F (Feb 23, 4:00 PM)100% (Feb 28, 7:00 AM)29.95 "Hg (Feb 28, 7:00 AM)
Low73 °F (Feb 17, 7:30 AM)39% (Feb 22, 4:00 PM)29.68 "Hg (Feb 25, 4:30 PM)
Average85 °F67%29.82 "Hg
* Reported Feb 16 10:30 AM — Mar 3 10:30 AM, Battambang, Weather by CustomWeather, © 2015

Note: Actual official high and low records may vary slightly from our data, if they occured in-between our weather recording intervals... More about our weather records

Advertising

Battambang weather history for previous 24 hours

 ConditionsComfort  
Time TempWeatherWind HumidityBarometerVisibility
10:30 AM
Tue, Mar 3
86 °FScattered clouds.7 mph66%29.89 "HgN/A
10:00 AM86 °FScattered clouds.7 mph66%29.89 "HgN/A
9:30 AM84 °FPassing clouds.5 mph70%29.89 "HgN/A
9:00 AM82 °FPassing clouds.5 mph79%29.89 "HgN/A
8:30 AM82 °FPassing clouds.3 mph79%29.89 "HgN/A
8:00 AM81 °FScattered clouds.3 mph89%29.89 "HgN/A
7:30 AM79 °FScattered clouds.3 mph89%29.86 "Hg5 mi
7:00 AM77 °FScattered clouds.2 mph94%29.86 "Hg5 mi
1:00 AM81 °FPassing clouds.6 mph84%29.80 "Hg6 mi
12:30 AM81 °FPassing clouds.6 mph84%29.83 "Hg6 mi
12:00 AM82 °FPassing clouds.6 mph79%29.83 "Hg6 mi
11:30 PM
Mon, Mar 2
84 °FPassing clouds.9 mph74%29.83 "Hg6 mi
11:00 PM84 °FPassing clouds.9 mph74%29.83 "Hg6 mi
10:30 PM84 °FPassing clouds.9 mph74%29.83 "Hg6 mi
10:00 PM86 °FPassing clouds.8 mph79%29.83 "Hg6 mi
9:30 PM86 °FPassing clouds.8 mph79%29.83 "Hg6 mi
9:00 PM86 °FPassing clouds.6 mph79%29.80 "Hg6 mi
8:00 PM86 °FPassing clouds.1 mph79%29.77 "Hg6 mi
7:30 PM88 °FPassing clouds.1 mph70%29.74 "Hg6 mi
7:00 PM88 °FPassing clouds.2 mph70%29.74 "Hg6 mi
6:30 PM90 °FPassing clouds.2 mph67%29.74 "Hg6 mi
6:00 PM91 °FPassing clouds.2 mph56%29.74 "HgN/A
5:30 PM91 °FPassing clouds.2 mph56%29.71 "HgN/A
5:00 PM93 °FPassing clouds.3 mph53%29.71 "HgN/A
4:30 PM93 °FPassing clouds.5 mph53%29.71 "HgN/A
4:00 PM93 °FPassing clouds.3 mph53%29.71 "HgN/A
3:30 PM91 °FScattered clouds.3 mph56%29.74 "HgN/A
3:00 PM91 °FScattered clouds.5 mph56%29.74 "HgN/A
2:30 PM91 °FScattered clouds.6 mph56%29.77 "HgN/A
2:00 PM91 °FScattered clouds.2 mph56%29.77 "HgN/A
1:00 PM91 °FScattered clouds.3 mph56%29.83 "HgN/A
12:30 PM90 °FScattered clouds.7 mph59%29.83 "HgN/A
12:00 PM88 °FScattered clouds.2 mph66%29.86 "HgN/A
Weather by CustomWeather, © 2015

See weather overviewHow to use our weather pages